McMinnville, OR

10:22 PM PDT on June 22, 2018 (GMT -0700)
McMinnville Municipal

Weather History for KMMV - August, 2016

Change the Weather History Date:

Friday, August 19, 2016

  Actual Average Record
Temperature  
Mean Temperature 81 °F 66 °F  
Max Temperature 102 °F 82 °F 104 °F (1897)
Min Temperature 59 °F 50 °F 37 °F (1916)
Degree Days  
Heating Degree Days 0 1  
Month to date heating degree days 13 19  
Since 1 July heating degree days 30 63  
Cooling Degree Days 16 3  
Month to date cooling degree days 110 57  
Year to date cooling degree days 290 157  
Growing Degree Days 30 (Base 50)    
Moisture  
Dew Point 47 °F    
Average Humidity 44    
Maximum Humidity 72    
Minimum Humidity 15    
Precipitation  
Precipitation 0.00 in 0.02 in 0.65 in (1968)
Month to date precipitation 0.26 0.29  
Year to date precipitation 24.73 22.04  
Sea Level Pressure  
Sea Level Pressure 29.87 in    
Wind  
Wind Speed 9 mph (North)    
Max Wind Speed 20 mph    
Max Gust Speed 25 mph    
Visibility 10 miles    
Events      
T = Trace of Precipitation, MM = Missing Value Source: NWS Daily Summary

Daily Weather History Graph

Daily Weather History Graph

Search for Another Location

Airport or City:

Astronomy

Aug. 19, 2016 Rise Set
Actual Time 6:19 AM PDT 8:11 PM PDT
Civil Twilight 5:47 AM PDT 8:43 PM PDT
Nautical Twilight 5:09 AM PDT 9:21 PM PDT
Astronomical Twilight 4:26 AM PDT 10:03 PM PDT
Moon 9:02 PM PDT (8/19) 7:48 AM PDT (8/19)
Length of Visible Light 14h 55m
Length of Day
13h 52m
Full, 97% of the Moon is Illuminated
Aug 19
Full
Aug 24
Last Quarter
Sep 1
New
Sep 9
First Quarter
Sep 16
Full

Hourly Weather History & Observations

Time (PDT) Temp. Dew Point Humidity Pressure Visibility Wind Dir Wind Speed Gust Speed Precip Events Conditions
12:53 AM 71.1 °F 50.0 °F 47% 29.87 in 10.0 mi North 3.5 mph - N/A   Clear
1:53 AM 73.0 °F 46.0 °F 38% 29.87 in 10.0 mi North 6.9 mph - N/A   Clear
2:53 AM 70.0 °F 45.0 °F 41% 29.87 in 10.0 mi North 4.6 mph - N/A   Clear
3:53 AM 64.0 °F 51.1 °F 63% 29.87 in 10.0 mi NW 3.5 mph - N/A   Clear
4:53 AM 61.0 °F 51.1 °F 70% 29.87 in 10.0 mi Calm Calm - N/A   Clear
5:53 AM 64.0 °F 50.0 °F 60% 29.88 in 10.0 mi Calm Calm - N/A   Clear
6:53 AM 71.1 °F 50.0 °F 47% 29.90 in 10.0 mi NNW 9.2 mph - N/A   Clear
7:53 AM 78.1 °F 48.0 °F 35% 29.91 in 10.0 mi North 8.1 mph - N/A   Clear
8:53 AM 82.0 °F 48.9 °F 31% 29.91 in 10.0 mi NNW 9.2 mph - N/A   Clear
9:53 AM 89.1 °F 46.0 °F 22% 29.92 in 10.0 mi NNE 13.8 mph - N/A   Clear
10:53 AM 91.9 °F 46.9 °F 21% 29.91 in 10.0 mi NNE 13.8 mph - N/A   Clear
11:53 AM 95.0 °F 46.9 °F 19% 29.91 in 10.0 mi North 11.5 mph - N/A   Clear
12:53 PM 97.0 °F 46.0 °F 18% 29.89 in 10.0 mi NE 12.7 mph - N/A   Clear
1:53 PM 100.0 °F 46.9 °F 16% 29.88 in 10.0 mi North 12.7 mph 18.4 mph N/A   Clear
2:53 PM 100.9 °F 46.0 °F 15% 29.87 in 10.0 mi North 13.8 mph - N/A   Clear
3:53 PM 100.9 °F 45.0 °F 15% 29.85 in 10.0 mi NE 15.0 mph - N/A   Clear
4:53 PM 100.0 °F 44.1 °F 15% 29.84 in 10.0 mi NNE 16.1 mph - N/A   Clear
5:53 PM 99.0 °F 44.1 °F 15% 29.83 in 10.0 mi NNE 16.1 mph - N/A   Clear
6:53 PM 97.0 °F 45.0 °F 17% 29.83 in 10.0 mi NNE 11.5 mph - N/A   Clear
7:53 PM 91.0 °F 48.0 °F 23% 29.83 in 10.0 mi NNE 5.8 mph - N/A   Clear
8:53 PM 84.0 °F 48.0 °F 28% 29.84 in 10.0 mi NNE 5.8 mph - N/A   Clear
9:53 PM 80.1 °F 48.0 °F 32% 29.86 in 10.0 mi NNW 10.4 mph - N/A   Clear
10:53 PM 81.0 °F 48.0 °F 31% 29.87 in 10.0 mi North 9.2 mph - N/A   Clear
11:53 PM 77.0 °F 48.9 °F 37% 29.87 in 10.0 mi NNW 9.2 mph - N/A   Clear